Location: Theodore Roosevelt Nature Center
(40.5943°N, 73.5104°W)
Time: 06:06:41
(UTC-05:00)

TIGRISAT - Visible Passes

Search period start: 11 December 2019 00:00
Search period end: 21 December 2019 00:00
Orbit: 606 x 688 km, 97.7° (Epoch: 11 December)

Date Brightness Start Highest point End Pass type
(mag) Time Alt. Az. Time Alt. Az. Time Alt. Az.
11 Dec ? 06:36:02 10° ESE 06:39:09 18° ENE 06:42:15 10° NNE visible
14 Dec ? 06:18:10 10° E 06:19:49 12° ENE 06:21:28 10° NE visible
18 Dec ? 06:23:31 10° E 06:25:50 14° ENE 06:28:09 10° NNE visible
